Weather History for Heber, UT

Change the Weather History Date:

Saturday, December 15, 2012

  Actual Average (KPVU) Record (KPVU)
Temperature  
Mean Temperature 32 °F -  
Max Temperature 35 °F 34 °F 53 °F (2006)
Min Temperature 30 °F 20 °F 3 °F (2013)
Degree Days  
Heating Degree Days 32    
Moisture  
Dew Point 28 °F    
Average Humidity 85    
Maximum Humidity 100    
Minimum Humidity 75    
Precipitation  
Precipitation 0.00 in - - ()
Sea Level Pressure  
Sea Level Pressure 29.77 in    
Wind  
Wind Speed 6 mph (SW)    
Max Wind Speed 23 mph    
Max Gust Speed 28 mph    
Visibility 8 miles    
Events Snow    
Averages and records for this station are not official NWS values.
T = Trace of Precipitation, MM = Missing Value Source: NWS Daily Summary

Daily Weather History Graph

Daily Weather History Graph

Search for Another Location

Airport:

Trip Planner

Search our weather history database for the weather conditions in past years. The results will help you decide how hot, cold, wet, or windy it might be!

Date:

Astronomy

Dec. 15, 2012 Rise Set
Actual Time 7:42 AM MST 5:00 PM MST
Civil Twilight 7:11 AM MST 5:30 PM MST
Nautical Twilight 6:37 AM MST 6:05 PM MST
Astronomical Twilight 6:03 AM MST 6:38 PM MST
Moon 9:37 AM MST (12/15) 8:08 PM MST (12/15)
Length of Visible Light 10h 19m
Length of Day
9h 17m
Waxing Crescent, 9% of the Moon is Illuminated
Dec 15
Waxing Crescent
Dec 19
First Quarter
Dec 28
Full
Jan 4
Last Quarter
Jan 11
New

Hourly Weather History & Observations

Time (MST) Temp. Windchill Dew Point Humidity Pressure Visibility Wind Dir Wind Speed Gust Speed Precip Events Conditions
12:15 AM 32.0 °F - 32.0 °F 100% 29.73 in 7.0 mi Calm Calm - N/A Snow Light Snow
12:35 AM 33.8 °F - 32.0 °F 93% 29.73 in 10.0 mi Calm Calm - N/A   Overcast
12:55 AM 33.8 °F 27.7 °F 32.0 °F 93% 29.73 in 10.0 mi SW 6.9 mph - N/A   Overcast
1:15 AM 33.8 °F 29.6 °F 32.0 °F 93% 29.73 in 10.0 mi South 4.6 mph - N/A   Overcast
1:35 AM 33.8 °F 27.0 °F 32.0 °F 93% 29.73 in 10.0 mi WSW 8.1 mph - N/A   Overcast
1:55 AM 33.8 °F 26.4 °F 32.0 °F 93% 29.74 in 10.0 mi SW 9.2 mph - N/A Snow Light Snow
2:15 AM 33.8 °F 24.3 °F 32.0 °F 93% 29.74 in 4.0 mi WSW 13.8 mph - N/A Snow Light Snow
2:35 AM 32.0 °F 26.4 °F 32.0 °F 100% 29.75 in 1.5 mi SW 5.8 mph - N/A Snow Light Snow
2:55 AM 32.0 °F 23.6 °F 32.0 °F 100% 29.76 in 2.0 mi SW 10.4 mph - N/A Snow Light Snow
3:15 AM 32.0 °F 23.6 °F 30.2 °F 93% 29.76 in 1.5 mi SSW 10.4 mph - N/A Snow Light Snow
3:35 AM 32.0 °F 25.6 °F 30.2 °F 93% 29.76 in 5.0 mi SSW 6.9 mph - N/A Snow Light Snow
3:55 AM 32.0 °F 19.2 °F 26.6 °F 80% 29.76 in 10.0 mi SW 23.0 mph - N/A Snow Light Snow
4:15 AM 32.0 °F 24.2 °F 28.4 °F 87% 29.77 in 10.0 mi SSW 9.2 mph - N/A   Overcast
4:35 AM 32.0 °F 21.2 °F 26.6 °F 80% 29.77 in 4.0 mi SSW 16.1 mph 27.6 mph N/A Snow Light Snow
4:55 AM 32.0 °F 25.6 °F 26.6 °F 80% 29.78 in 7.0 mi South 6.9 mph - N/A Snow Light Snow
5:15 AM 32.0 °F 27.5 °F 26.6 °F 80% 29.78 in 5.0 mi South 4.6 mph 17.3 mph N/A Snow Light Snow
5:35 AM 30.2 °F 25.4 °F 26.6 °F 86% 29.78 in 7.0 mi SW 4.6 mph - N/A Snow Light Snow
5:55 AM 30.2 °F - 26.6 °F 86% 29.78 in 10.0 mi Calm Calm - N/A   Overcast
6:15 AM 30.2 °F 24.3 °F 26.6 °F 86% 29.78 in 10.0 mi WSW 5.8 mph - N/A   Overcast
6:35 AM 30.2 °F 24.3 °F 28.4 °F 93% 29.78 in 10.0 mi SW 5.8 mph - N/A   Overcast
6:55 AM 30.2 °F 25.4 °F 26.6 °F 86% 29.78 in 10.0 mi South 4.6 mph - N/A   Overcast
7:15 AM 30.2 °F 24.3 °F 26.6 °F 86% 29.79 in 10.0 mi ESE 5.8 mph - N/A   Overcast
7:35 AM 30.2 °F 25.4 °F 26.6 °F 86% 29.79 in 10.0 mi ENE 4.6 mph - N/A   Overcast
7:55 AM 30.2 °F - 28.4 °F 93% 29.80 in 5.0 mi Calm Calm - N/A Snow Light Snow
8:15 AM 30.2 °F - 28.4 °F 93% 29.80 in 2.5 mi Calm Calm - N/A Snow Light Snow
8:35 AM 30.2 °F - 28.4 °F 93% 29.80 in 3.0 mi Calm Calm - N/A Snow Light Snow
8:55 AM 30.2 °F - 28.4 °F 93% 29.80 in 3.0 mi Calm Calm - N/A Snow Light Snow
9:15 AM 30.2 °F - 28.4 °F 93% 29.80 in 4.0 mi Calm Calm - N/A Snow Light Snow
9:35 AM 32.0 °F - 28.4 °F 87% 29.80 in 3.0 mi Calm Calm - N/A Snow Light Snow
9:55 AM 32.0 °F - 28.4 °F 87% 29.80 in 4.0 mi Calm Calm - N/A Snow Light Snow
10:15 AM 32.0 °F - 28.4 °F 87% 29.81 in 3.0 mi Calm Calm - N/A Snow Light Snow
10:35 AM 32.0 °F - 28.4 °F 87% 29.81 in 5.0 mi Calm Calm - N/A Snow Light Snow
10:55 AM 32.0 °F - 28.4 °F 87% 29.81 in 7.0 mi Calm Calm - N/A   Overcast
11:15 AM 32.0 °F - 28.4 °F 87% 29.80 in 5.0 mi Calm Calm - N/A Snow Light Snow
11:55 AM 33.8 °F - 30.2 °F 87% 29.79 in 7.0 mi Calm Calm - N/A   Mostly Cloudy
12:15 PM 33.8 °F - 30.2 °F 87% 29.78 in 10.0 mi Calm Calm - N/A   Mostly Cloudy
12:35 PM 33.8 °F - 28.4 °F 81% 29.77 in 10.0 mi Calm Calm - N/A   Overcast
12:55 PM 33.8 °F - 28.4 °F 81% 29.77 in 10.0 mi Calm Calm - N/A   Overcast
1:15 PM 33.8 °F 30.8 °F 28.4 °F 81% 29.77 in 10.0 mi WSW 3.5 mph - N/A   Overcast
1:35 PM 35.6 °F 29.2 °F 28.4 °F 75% 29.77 in 10.0 mi SW 8.1 mph - N/A   Mostly Cloudy
1:55 PM 35.6 °F 27.1 °F 28.4 °F 75% 29.76 in 10.0 mi SW 12.7 mph - N/A   Mostly Cloudy
2:15 PM 33.8 °F 26.4 °F 28.4 °F 81% 29.76 in 10.0 mi SSW 9.2 mph - N/A   Overcast
2:35 PM 33.8 °F 25.8 °F 26.6 °F 75% 29.76 in 10.0 mi SW 10.4 mph - N/A   Overcast
2:55 PM 33.8 °F 25.8 °F 28.4 °F 81% 29.76 in 10.0 mi WSW 10.4 mph - N/A   Overcast
3:15 PM 33.8 °F 25.3 °F 26.6 °F 75% 29.76 in 10.0 mi SW 11.5 mph - N/A   Mostly Cloudy
3:35 PM 33.8 °F 25.3 °F 26.6 °F 75% 29.76 in 10.0 mi SW 11.5 mph - N/A   Overcast
3:55 PM 32.0 °F 26.4 °F 26.6 °F 80% 29.76 in 10.0 mi SW 5.8 mph - N/A   Overcast
4:15 PM 32.0 °F 23.6 °F 26.6 °F 80% 29.76 in 10.0 mi SW 10.4 mph - N/A   Overcast
4:55 PM 32.0 °F 25.6 °F 26.6 °F 80% 29.77 in 10.0 mi SSW 6.9 mph - N/A   Overcast
5:15 PM 32.0 °F 26.4 °F 26.6 °F 80% 29.76 in 10.0 mi SW 5.8 mph - N/A   Overcast
5:35 PM 32.0 °F 24.8 °F 26.6 °F 80% 29.76 in 10.0 mi SSW 8.1 mph - N/A   Overcast
5:55 PM 32.0 °F 24.2 °F 26.6 °F 80% 29.76 in 10.0 mi SW 9.2 mph - N/A   Overcast
6:15 PM 32.0 °F 24.8 °F 26.6 °F 80% 29.77 in 10.0 mi SW 8.1 mph - N/A   Overcast
6:55 PM 30.2 °F 25.4 °F 24.8 °F 80% 29.77 in 10.0 mi South 4.6 mph - N/A   Overcast
7:15 PM 32.0 °F 25.6 °F 24.8 °F 75% 29.77 in 10.0 mi SSW 6.9 mph - N/A   Overcast
7:35 PM 32.0 °F 23.0 °F 26.6 °F 80% 29.77 in 10.0 mi SW 11.5 mph - N/A   Overcast
7:55 PM 32.0 °F 24.8 °F 24.8 °F 75% 29.77 in 10.0 mi SW 8.1 mph - N/A   Overcast
8:15 PM 32.0 °F 25.6 °F 24.8 °F 75% 29.78 in 10.0 mi SW 6.9 mph - N/A   Overcast
8:35 PM 32.0 °F 23.6 °F 26.6 °F 80% 29.78 in 7.0 mi SW 10.4 mph - N/A Snow Light Snow
8:55 PM 30.2 °F 23.4 °F 26.6 °F 86% 29.78 in 7.0 mi SSW 6.9 mph - N/A Snow Light Snow
9:15 PM 30.2 °F 22.6 °F 26.6 °F 86% 29.78 in 10.0 mi SW 8.1 mph - N/A Snow Light Snow
9:35 PM 30.2 °F 23.4 °F 26.6 °F 86% 29.78 in 7.0 mi SSW 6.9 mph - N/A Snow Light Snow
9:55 PM 30.2 °F 22.6 °F 26.6 °F 86% 29.79 in 4.0 mi SW 8.1 mph - N/A Snow Light Snow
10:15 PM 30.2 °F 23.4 °F 26.6 °F 86% 29.78 in 5.0 mi SW 6.9 mph - N/A Snow Light Snow
10:35 PM 30.2 °F 21.3 °F 26.6 °F 86% 29.79 in 10.0 mi SW 10.4 mph - N/A Snow Light Snow
10:55 PM 30.2 °F 21.9 °F 24.8 °F 80% 29.79 in 10.0 mi SSW 9.2 mph - N/A Snow Light Snow
11:15 PM 30.2 °F 22.6 °F 24.8 °F 80% 29.79 in 10.0 mi SSW 8.1 mph - N/A Snow Light Snow
11:35 PM 30.2 °F 23.4 °F 23.0 °F 75% 29.79 in 10.0 mi SSW 6.9 mph - N/A Snow Light Snow
11:55 PM 30.2 °F 22.6 °F 23.0 °F 75% 29.79 in 10.0 mi SSW 8.1 mph - N/A   Overcast